Regional Weather Roundup
Issued by NWS

Home | Current Version | Previous Version | Graphics & Text | Print | Product List | Glossary On
Versions: 1 2 3 4 5 6 7 8 9 10 11 12 13 14 15 16 17 18 19 20 21 22 23 24 25 26 27 28 29 30 31 32 33 34 35 36 37 38 39 40 41 42 43 44 45 46 47 48 49 50
000
ASUS43 KFSD 040302
RWRSD

WEATHER ROUNDUP FOR SOUTH DAKOTA
NATIONAL WEATHER SERVICE SIOUX FALLS SD
900 PM CST TUE MAR 03 2015

NOTE: "FAIR" INDICATES FEW OR NO CLOUDS BELOW 12,000 FEET WITH NO
SIGNIFICANT WEATHER AND/OR OBSTRUCTIONS TO VISIBILITY.


SDZ001>005-009-010-012>017-040400-
NORTHWEST AND NORTH CENTRAL SOUTH DAKOTA

CITY           SKY/WX    TMP DP  RH WIND       PRES   REMARKS
BUFFALO          N/A      4  -6  63 NW12      29.92R WCI -12
FAITH            N/A      5  -5  63 W8        30.02R WCI  -8
MOBRIDGE       CLEAR      8  -1  66 N5        30.02R WCI   0
$$

SDZ012>016-024>037-041>051-057-063-072>074-040400-
SOUTHWEST AND SOUTH CENTRAL SOUTH DAKOTA

CITY           SKY/WX    TMP DP  RH WIND       PRES   REMARKS
RAPID CTY ARPT PTCLDY     8  -2  63 N12       30.02R WCI  -7
PIERRE         PTCLDY    10  -1  61 W9        30.08R WCI  -3
CUSTER         CLEAR      1  -8  66 W7        29.84R WCI -12
ELLSWORTH AFB  PTCLDY     8  -3  59 NW12      30.01R WCI  -7
PHILIP         PTCLDY     8  -3  61 NW10      30.09R WCI  -6
PINE RIDGE     LGT SNOW  12   8  84 NE6       30.03S FOG     WCI   3
SPEARFISH      FAIR       5  -4  66 MISG      29.97S
WINNER         MOCLDY    13   1  59 W12       30.07R WCI  -1
$$

SDZ004>011-016>023-039-040-040400-
NORTHEAST SOUTH DAKOTA

CITY           SKY/WX    TMP DP  RH WIND       PRES   REMARKS
ABERDEEN       CLEAR      5  -4  66 NW5       30.08R WCI  -4
WATERTOWN      CLEAR      4  -5  66 NW9       30.01S WCI -10
SISSETON         N/A      3  -5  69 NW9       30.06R WCI -12
$$

SDZ017-020-022-023-036>040-048>070-040400-
SOUTHEAST SOUTH DAKOTA

CITY           SKY/WX    TMP DP  RH WIND       PRES   REMARKS
SIOUX FALLS    MOCLDY    10   2  69 NW7       30.05R WCI  -1
HURON          CLEAR      4  -3  73 NW10      30.09R WCI -11
MITCHELL       PTCLDY     8   1  73 NW6       30.10R WCI  -2
YANKTON        PTCLDY    12   3  67 NW3       30.11R
$$

ABBREVIATIONS USED IN REMARKS
   TC - TEMPERATURE IN CELSIUS
  WCI - WIND CHILL INDEX
   HX - HEAT INDEX
  VSB - VISIBILITY




USA.gov is the U.S. government's official web portal to all federal, state and local government web resources and services.